"Sample Date","Sample Time","Sample Value","Units","Flow Rate","Sample Interval","Number Channels","Micron Size 0","Counts/Channel 0","Micron Size 1","Counts/Channel 1","Micron Size 2","Counts/Channel 2","Micron Size 3","Counts/Channel 3","Micron Size 4","Counts/Channel 4","Micron Size 5","Counts/Channel 5","Micron Size 6","Counts/Channel 6","Micron Size 7","Counts/Channel 7","Micron Size 8","Counts/Channel 8","Micron Size 9","Counts/Channel 9","Micron Size 10","Counts/Channel 10","Micron Size 11","Counts/Channel 11","Micron Size 12","Counts/Channel 12","Micron Size 13","Counts/Channel 13","Micron Size 14","Counts/Channel 14","Micron Size 15","Counts/Channel 15","Micron Size 16","Counts/Channel 16","Micron Size 17","Counts/Channel 17","Micron Size 18","Counts/Channel 18","Micron Size 19","Counts/Channel 19","Micron Size 20","Counts/Channel 20","Micron Size 21","Counts/Channel 21","Micron Size 22","Counts/Channel 22","Micron Size 23","Counts/Channel 23","Micron Size 24","Counts/Channel 24","Micron Size 25","Counts/Channel 25","Micron Size 26","Counts/Channel 26","Micron Size 27","Counts/Channel 27","Micron Size 28","Counts/Channel 28","Micron Size 29","Counts/Channel 29","Micron Size 30","Counts/Channel 30","Micron Size 31","Counts/Channel 31"
"03/10/08","01:00:05",52637.000,"cc",28299.920,6.00,6,0.100,37553.000,0.200,6862.000,0.300,3723.000,0.500,3557.000,1.000,942.000,5.000,0
"03/10/08","01:00:11",39812.000,"cc",28271.773,6.00,6,0.100,26075.000,0.200,5658.000,0.300,3546.000,0.500,3671.000,1.000,862.000,5.000,0
"03/10/08","01:00:17",37453.000,"cc",28379.408,6.00,6,0.100,24220.000,0.200,5153.000,0.300,3689.000,0.500,3478.000,1.000,913.000,5.000,0
"03/10/08","01:00:23",60859.000,"cc",28338.463,6.00,6,0.100,45196.000,0.200,7543.000,0.300,3741.000,0.500,3486.000,1.000,893.000,5.000,0
"03/10/08","01:00:29",57831.000,"cc",28298.441,6.00,6,0.100,41568.000,0.200,7483.000,0.300,3974.000,0.500,3790.000,1.000,1016.000,5.000,0
"03/10/08","01:00:35",65604.000,"cc",28270.834,6.00,6,0.100,48849.000,0.200,8197.000,0.300,3897.000,0.500,3612.000,1.000,1049.000,5.000,0
"03/10/08","01:00:41",93207.000,"cc",28339.283,6.00,6,0.100,73930.000,0.200,10861.000,0.300,3935.000,0.500,3567.000,1.000,914.000,5.000,0
"03/10/08","01:00:47",41589.000,"cc",28329.148,6.00,6,0.100,27395.000,0.200,5783.000,0.300,3733.000,0.500,3701.000,1.000,977.000,5.000,0
"03/10/08","01:00:53",52542.000,"cc",28381.051,6.00,6,0.100,36883.000,0.200,6877.000,0.300,3979.000,0.500,3816.000,1.000,987.000,5.000,0
"03/10/08","01:00:59",69167.000,"cc",28297.672,6.00,6,0.100,51548.000,0.200,8659.000,0.300,4081.000,0.500,3855.000,1.000,1024.000,5.000,0
"03/10/08","01:01:05",81492.000,"cc",28258.897,6.00,6,0.100,62675.000,0.200,9871.000,0.300,4080.000,0.500,3843.000,1.000,1023.000,5.000,0
"03/10/08","01:01:11",77341.000,"cc",28293.619,6.00,6,0.100,59624.000,0.200,9258.000,0.300,3882.000,0.500,3599.000,1.000,978.000,5.000,0
"03/10/08","01:01:17",85416.000,"cc",28355.477,6.00,6,0.100,66821.000,0.200,10117.000,0.300,3894.000,0.500,3640.000,1.000,944.000,5.000,0
"03/10/08","01:01:23",93304.000,"cc",28354.272,6.00,6,0.100,74047.000,0.200,10895.000,0.300,3799.000,0.500,3626.000,1.000,937.000,5.000,0
"03/10/08","01:01:29",93636.000,"cc",28299.764,6.00,6,0.100,74327.000,0.200,10924.000,0.300,3853.000,0.500,3559.000,1.000,973.000,5.000,0
"03/10/08","01:01:35",73911.000,"cc",28321.607,6.00,6,0.100,56095.000,0.200,8984.000,0.300,3948.000,0.500,3823.000,1.000,1061.000,5.000,0
"03/10/08","01:01:41",35542.000,"cc",28314.715,6.00,6,0.100,21714.000,0.200,5238.000,0.300,3805.000,0.500,3810.000,1.000,975.000,5.000,0
"03/10/08","01:01:47",102202.000,"cc",28240.951,6.00,6,0.100,81276.000,0.200,12296.000,0.300,4140.000,0.500,3572.000,1.000,918.000,5.000,0
"03/10/08","01:01:53",90543.000,"cc",28270.615,6.00,6,0.100,70923.000,0.200,10826.000,0.300,4101.000,0.500,3750.000,1.000,943.000,5.000,0
"03/10/08","01:01:59",74054.000,"cc",28280.391,6.00,6,0.100,56237.000,0.200,9087.000,0.300,3935.000,0.500,3858.000,1.000,937.000,5.000,0
"03/10/08","01:02:05",81187.000,"cc",28369.430,6.00,6,0.100,63014.000,0.200,9679.000,0.300,3893.000,0.500,3648.000,1.000,953.000,5.000,0
"03/10/08","01:02:11",77175.000,"cc",28371.943,6.00,6,0.100,59293.000,0.200,9392.000,0.300,3860.000,0.500,3669.000,1.000,961.000,5.000,0
"03/10/08","01:02:17",53034.000,"cc",28337.613,6.00,6,0.100,37794.000,0.200,6925.000,0.300,3749.000,0.500,3681.000,1.000,885.000,5.000,0
"03/10/08","01:02:23",49807.000,"cc",28333.699,6.00,6,0.100,34776.000,0.200,6746.000,0.300,3787.000,0.500,3569.000,1.000,929.000,5.000,0
"03/10/08","01:02:29",64732.000,"cc",28305.074,6.00,6,0.100,48211.000,0.200,8091.000,0.300,3837.000,0.500,3657.000,1.000,936.000,5.000,0
"03/10/08","01:02:35",65482.000,"cc",28347.793,6.00,6,0.100,48837.000,0.200,8289.000,0.300,3892.000,0.500,3576.000,1.000,888.000,5.000,0
"03/10/08","01:02:41",46125.000,"cc",28334.285,6.00,6,0.100,31004.000,0.200,6294.000,0.300,3878.000,0.500,3922.000,1.000,1027.000,5.000,0
"03/10/08","01:02:47",44341.000,"cc",28340.023,6.00,6,0.100,30336.000,0.200,5824.000,0.300,3693.000,0.500,3582.000,1.000,906.000,5.000,0
"03/10/08","01:02:53",35933.000,"cc",28245.857,6.00,6,0.100,22198.000,0.200,5065.000,0.300,3859.000,0.500,3754.000,1.000,1057.000,5.000,0
"03/10/08","01:02:59",38016.000,"cc",28250.232,6.00,6,0.100,24294.000,0.200,5499.000,0.300,3683.000,0.500,3600.000,1.000,940.000,5.000,0
"03/10/08","01:03:05",80644.000,"cc",28344.361,6.00,6,0.100,62561.000,0.200,9970.000,0.300,3783.000,0.500,3489.000,1.000,841.000,5.000,0
"03/10/08","01:03:11",84941.000,"cc",28324.686,6.00,6,0.100,65988.000,0.200,10301.000,0.300,3956.000,0.500,3733.000,1.000,963.000,5.000,0
"03/10/08","01:03:17",47214.000,"cc",28370.992,6.00,6,0.100,32829.000,0.200,6373.000,0.300,3602.000,0.500,3499.000,1.000,911.000,5.000,0
"03/10/08","01:03:23",147196.000,"cc",28292.598,6.00,6,0.100,120908.000,0.200,17478.000,0.300,4164.000,0.500,3725.000,1.000,921.000,5.000,0
"03/10/08","01:03:29",48999.000,"cc",28310.797,6.00,6,0.100,33963.000,0.200,6444.000,0.300,3900.000,0.500,3695.000,1.000,997.000,5.000,0
"03/10/08","01:03:35",35400.000,"cc",28260.395,6.00,6,0.100,21935.000,0.200,5104.000,0.300,3784.000,0.500,3659.000,1.000,918.000,5.000,0
"03/10/08","01:03:41",81120.000,"cc",28382.061,6.00,6,0.100,63084.000,0.200,9801.000,0.300,3766.000,0.500,3588.000,1.000,881.000,5.000,0
"03/10/08","01:03:47",54670.000,"cc",28282.846,6.00,6,0.100,39589.000,0.200,6881.000,0.300,3695.000,0.500,3567.000,1.000,938.000,5.000,0
"03/10/08","01:03:53",60942.000,"cc",28311.043,6.00,6,0.100,45308.000,0.200,7724.000,0.300,3591.000,0.500,3458.000,1.000,861.000,5.000,0
"03/10/08","01:03:59",165203.000,"cc",28332.764,6.00,6,0.100,138781.000,0.200,18521.000,0.300,3834.000,0.500,3230.000,1.000,837.000,5.000,0
"03/10/08","01:04:05",156762.000,"cc",28198.443,6.00,6,0.100,132205.000,0.200,17345.000,0.300,3500.000,0.500,3007.000,1.000,705.000,5.000,0
"03/10/08","01:04:11",65247.000,"cc",28367.877,6.00,6,0.100,50473.000,0.200,7653.000,0.300,3263.000,0.500,3096.000,1.000,762.000,5.000,0
"03/10/08","01:04:17",54316.000,"cc",28392.604,6.00,6,0.100,40391.000,0.200,6725.000,0.300,3325.000,0.500,3075.000,1.000,800.000,5.000,0
"03/10/08","01:04:23",71164.000,"cc",28325.000,6.00,6,0.100,55715.000,0.200,8507.000,0.300,3241.000,0.500,2968.000,1.000,733.000,5.000,0
"03/10/08","01:04:29",70730.000,"cc",28271.754,6.00,6,0.100,55129.000,0.200,8304.000,0.300,3333.000,0.500,3167.000,1.000,797.000,5.000,0
"03/10/08","01:04:35",54505.000,"cc",28416.199,6.00,6,0.100,40527.000,0.200,6550.000,0.300,3322.000,0.500,3277.000,1.000,829.000,5.000,0
"03/10/08","01:04:41",40133.000,"cc",28331.158,6.00,6,0.100,27207.000,0.200,5502.000,0.300,3269.000,0.500,3226.000,1.000,929.000,5.000,0
"03/10/08","01:04:47",56649.000,"cc",28244.393,6.00,6,0.100,42271.000,0.200,6885.000,0.300,3352.000,0.500,3337.000,1.000,804.000,5.000,0
"03/10/08","01:04:53",50049.000,"cc",28290.789,6.00,6,0.100,35881.000,0.200,6485.000,0.300,3537.000,0.500,3352.000,1.000,794.000,5.000,0
"03/10/08","01:04:59",61183.000,"cc",28293.346,6.00,6,0.100,46680.000,0.200,7374.000,0.300,3312.000,0.500,3062.000,1.000,755.000,5.000,0
"03/10/08","01:05:05",153253.000,"cc",28298.525,6.00,6,0.100,128658.000,0.200,17163.000,0.300,3674.000,0.500,3003.000,1.000,755.000,5.000,0
"03/10/08","01:05:11",77359.000,"cc",28302.334,6.00,6,0.100,61252.000,0.200,8826.000,0.300,3363.000,0.500,3174.000,1.000,744.000,5.000,0
"03/10/08","01:05:17",52887.000,"cc",28364.781,6.00,6,0.100,39265.000,0.200,6543.000,0.300,3278.000,0.500,3024.000,1.000,777.000,5.000,0
"03/10/08","01:05:23",92786.000,"cc",28320.895,6.00,6,0.100,74678.000,0.200,10820.000,0.300,3495.000,0.500,3034.000,1.000,759.000,5.000,0
"03/10/08","01:05:29",46211.000,"cc",28374.734,6.00,6,0.100,32782.000,0.200,5983.000,0.300,3367.000,0.500,3248.000,1.000,831.000,5.000,0
"03/10/08","01:05:35",42757.000,"cc",28268.555,6.00,6,0.100,29627.000,0.200,5747.000,0.300,3283.000,0.500,3276.000,1.000,824.000,5.000,0
"03/10/08","01:05:41",71838.000,"cc",28352.203,6.00,6,0.100,55515.000,0.200,8721.000,0.300,3443.000,0.500,3270.000,1.000,889.000,5.000,0
"03/10/08","01:05:47",75436.000,"cc",28256.678,6.00,6,0.100,58951.000,0.200,9008.000,0.300,3526.000,0.500,3169.000,1.000,782.000,5.000,0
"03/10/08","01:05:53",86845.000,"cc",28329.775,6.00,6,0.100,69025.000,0.200,10212.000,0.300,3612.000,0.500,3183.000,1.000,813.000,5.000,0
"03/10/08","01:05:59",58638.000,"cc",28370.561,6.00,6,0.100,43102.000,0.200,7518.000,0.300,3782.000,0.500,3405.000,1.000,831.000,5.000,0
"03/10/08","01:06:05",47741.000,"cc",28276.010,6.00,6,0.100,33338.000,0.200,6357.000,0.300,3708.000,0.500,3447.000,1.000,891.000,5.000,0
"03/10/08","01:06:11",66955.000,"cc",28335.815,6.00,6,0.100,50880.000,0.200,8311.000,0.300,3654.000,0.500,3280.000,1.000,830.000,5.000,0
"03/10/08","01:06:17",53955.000,"cc",28328.971,6.00,6,0.100,38720.000,0.200,7115.000,0.300,3711.000,0.500,3501.000,1.000,908.000,5.000,0
"03/10/08","01:06:23",41730.000,"cc",28294.557,6.00,6,0.100,27291.000,0.200,5961.000,0.300,3828.000,0.500,3678.000,1.000,972.000,5.000,0
"03/10/08","01:06:29",84402.000,"cc",28288.594,6.00,6,0.100,67556.000,0.200,9973.000,0.300,3293.000,0.500,2845.000,1.000,735.000,5.000,0
"03/10/08","01:06:35",86771.000,"cc",28328.570,6.00,6,0.100,69649.000,0.200,10126.000,0.300,3267.000,0.500,2992.000,1.000,737.000,5.000,0
"03/10/08","01:06:41",60773.000,"cc",28322.742,6.00,6,0.100,46083.000,0.200,7525.000,0.300,3387.000,0.500,3045.000,1.000,733.000,5.000,0
"03/10/08","01:06:47",43986.000,"cc",28330.037,6.00,6,0.100,30659.000,0.200,5858.000,0.300,3408.000,0.500,3234.000,1.000,827.000,5.000,0
"03/10/08","01:06:53",32940.000,"cc",28349.828,6.00,6,0.100,21002.000,0.200,4613.000,0.300,3248.000,0.500,3205.000,1.000,872.000,5.000,0
"03/10/08","01:06:59",31613.000,"cc",28246.238,6.00,6,0.100,19161.000,0.200,4688.000,0.300,3396.000,0.500,3476.000,1.000,892.000,5.000,0
"03/10/08","01:07:05",55166.000,"cc",28328.279,6.00,6,0.100,40989.000,0.200,6975.000,0.300,3288.000,0.500,3101.000,1.000,813.000,5.000,0
"03/10/08","01:07:11",57200.000,"cc",28242.416,6.00,6,0.100,43242.000,0.200,6916.000,0.300,3275.000,0.500,2988.000,1.000,779.000,5.000,0
"03/10/08","01:07:17",41057.000,"cc",28340.359,6.00,6,0.100,28748.000,0.200,5409.000,0.300,3140.000,0.500,3000.000,1.000,760.000,5.000,0
"03/10/08","01:07:23",76765.000,"cc",28341.729,6.00,6,0.100,60838.000,0.200,9056.000,0.300,3195.000,0.500,2937.000,1.000,739.000,5.000,0
"03/10/08","01:07:29",58521.000,"cc",28294.561,6.00,6,0.100,44671.000,0.200,7004.000,0.300,3212.000,0.500,2876.000,1.000,758.000,5.000,0
"03/10/08","01:07:35",102096.000,"cc",28278.473,6.00,6,0.100,82580.000,0.200,12113.000,0.300,3543.000,0.500,3075.000,1.000,785.000,5.000,0
"03/10/08","01:07:41",72136.000,"cc",28301.049,6.00,6,0.100,56307.000,0.200,8668.000,0.300,3404.000,0.500,3004.000,1.000,753.000,5.000,0
"03/10/08","01:07:47",32786.000,"cc",28376.553,6.00,6,0.100,21533.000,0.200,4473.000,0.300,3039.000,0.500,2925.000,1.000,816.000,5.000,0
"03/10/08","01:07:53",85568.000,"cc",28282.086,6.00,6,0.100,69004.000,0.200,9983.000,0.300,3145.000,0.500,2738.000,1.000,698.000,5.000,0
"03/10/08","01:07:59",125305.000,"cc",28328.633,6.00,6,0.100,104702.000,0.200,14142.000,0.300,3183.000,0.500,2634.000,1.000,644.000,5.000,0
"03/10/08","01:08:05",120143.000,"cc",28348.334,6.00,6,0.100,100386.000,0.200,13594.000,0.300,2955.000,0.500,2568.000,1.000,640.000,5.000,0
"03/10/08","01:08:11",92718.000,"cc",28312.764,6.00,6,0.100,75648.000,0.200,10751.000,0.300,3008.000,0.500,2651.000,1.000,660.000,5.000,0
"03/10/08","01:08:17",51158.000,"cc",28398.580,6.00,6,0.100,38530.000,0.200,6197.000,0.300,2987.000,0.500,2766.000,1.000,678.000,5.000,0
"03/10/08","01:08:23",72274.000,"cc",28161.889,6.00,6,0.100,57207.000,0.200,8416.000,0.300,3145.000,0.500,2794.000,1.000,712.000,5.000,0
"03/10/08","01:08:29",38216.000,"cc",28251.475,6.00,6,0.100,26246.000,0.200,5138.000,0.300,3103.000,0.500,2958.000,1.000,771.000,5.000,0
"03/10/08","01:08:35",62165.000,"cc",28346.053,6.00,6,0.100,48049.000,0.200,7415.000,0.300,3184.000,0.500,2819.000,1.000,698.000,5.000,0
"03/10/08","01:08:41",45499.000,"cc",28359.111,6.00,6,0.100,33308.000,0.200,5899.000,0.300,2947.000,0.500,2639.000,1.000,706.000,5.000,0
"03/10/08","01:08:47",98880.000,"cc",28310.303,6.00,6,0.100,81446.000,0.200,11296.000,0.300,2976.000,0.500,2525.000,1.000,637.000,5.000,0
"03/10/08","01:08:53",147684.000,"cc",28384.492,6.00,6,0.100,124199.000,0.200,17016.000,0.300,3223.000,0.500,2587.000,1.000,659.000,5.000,0
"03/10/08","01:08:59",96465.000,"cc",28325.348,6.00,6,0.100,78845.000,0.200,11314.000,0.300,3038.000,0.500,2599.000,1.000,669.000,5.000,0
"03/10/08","01:09:05",137216.000,"cc",28284.473,6.00,6,0.100,115202.000,0.200,15632.000,0.300,3115.000,0.500,2684.000,1.000,583.000,5.000,0
"03/10/08","01:09:11",58650.000,"cc",28258.338,6.00,6,0.100,45276.000,0.200,7120.000,0.300,2896.000,0.500,2628.000,1.000,730.000,5.000,0
"03/10/08","01:09:17",37095.000,"cc",28336.221,6.00,6,0.100,26073.000,0.200,4812.000,0.300,2819.000,0.500,2684.000,1.000,707.000,5.000,0
"03/10/08","01:09:23",41606.000,"cc",28340.488,6.00,6,0.100,30142.000,0.200,5318.000,0.300,2801.000,0.500,2654.000,1.000,691.000,5.000,0
"03/10/08","01:09:29",98823.000,"cc",28360.092,6.00,6,0.100,80880.000,0.200,11699.000,0.300,3092.000,0.500,2506.000,1.000,646.000,5.000,0
"03/10/08","01:09:35",52020.000,"cc",28261.273,6.00,6,0.100,39716.000,0.200,6280.000,0.300,2762.000,0.500,2633.000,1.000,629.000,5.000,0
"03/10/08","01:09:41",48642.000,"cc",28376.840,6.00,6,0.100,36020.000,0.200,6204.000,0.300,2946.000,0.500,2781.000,1.000,691.000,5.000,0
"03/10/08","01:09:47",98465.000,"cc",28317.904,6.00,6,0.100,80902.000,0.200,11309.000,0.300,3044.000,0.500,2589.000,1.000,621.000,5.000,0
"03/10/08","01:09:53",41585.000,"cc",28305.166,6.00,6,0.100,30511.000,0.200,5136.000,0.300,2701.000,0.500,2561.000,1.000,676.000,5.000,0
"03/10/08","01:09:59",44525.000,"cc",28393.631,6.00,6,0.100,33473.000,0.200,5450.000,0.300,2636.000,0.500,2384.000,1.000,582.000,5.000,0
"03/10/08","01:10:05",67027.000,"cc",28197.066,6.00,6,0.100,53619.000,0.200,7824.000,0.300,2697.000,0.500,2306.000,1.000,581.000,5.000,0
"03/10/08","01:10:11",48857.000,"cc",28225.629,6.00,6,0.100,37225.000,0.200,5888.000,0.300,2767.000,0.500,2378.000,1.000,599.000,5.000,0
"03/10/08","01:10:17",57785.000,"cc",28336.650,6.00,6,0.100,45341.000,0.200,6698.000,0.300,2728.000,0.500,2438.000,1.000,580.000,5.000,0
"03/10/08","01:10:23",50327.000,"cc",28413.190,6.00,6,0.100,39076.000,0.200,5904.000,0.300,2521.000,0.500,2227.000,1.000,599.000,5.000,0
"03/10/08","01:10:29",53529.000,"cc",28315.785,6.00,6,0.100,41668.000,0.200,6256.000,0.300,2663.000,0.500,2383.000,1.000,559.000,5.000,0
"03/10/08","01:10:35",56264.000,"cc",28309.857,6.00,6,0.100,43972.000,0.200,6608.000,0.300,2699.000,0.500,2419.000,1.000,566.000,5.000,0
"03/10/08","01:10:41",81757.000,"cc",28293.443,6.00,6,0.100,66620.000,0.200,9263.000,0.300,2857.000,0.500,2444.000,1.000,573.000,5.000,0
"03/10/08","01:10:47",72441.000,"cc",28304.688,6.00,6,0.100,58311.000,0.200,8161.000,0.300,2876.000,0.500,2466.000,1.000,627.000,5.000,0
"03/10/08","01:10:53",56545.000,"cc",28335.385,6.00,6,0.100,43952.000,0.200,6754.000,0.300,2755.000,0.500,2491.000,1.000,593.000,5.000,0
"03/10/08","01:10:59",68990.000,"cc",28335.215,6.00,6,0.100,55099.000,0.200,7921.000,0.300,2783.000,0.500,2508.000,1.000,679.000,5.000,0
"03/10/08","01:11:05",84250.000,"cc",28314.522,6.00,6,0.100,69080.000,0.200,9261.000,0.300,2840.000,0.500,2493.000,1.000,576.000,5.000,0
"03/10/08","01:11:11",55555.000,"cc",28346.641,6.00,6,0.100,43689.000,0.200,6257.000,0.300,2627.000,0.500,2373.000,1.000,609.000,5.000,0
"03/10/08","01:11:17",42382.000,"cc",28279.789,6.00,6,0.100,31757.000,0.200,5151.000,0.300,2570.000,0.500,2319.000,1.000,585.000,5.000,0
"03/10/08","01:11:23",36903.000,"cc",28331.133,6.00,6,0.100,26653.000,0.200,4635.000,0.300,2515.000,0.500,2443.000,1.000,657.000,5.000,0
"03/10/08","01:11:29",49615.000,"cc",28334.242,6.00,6,0.100,37687.000,0.200,6019.000,0.300,2680.000,0.500,2576.000,1.000,653.000,5.000,0
"03/10/08","01:11:35",64458.000,"cc",28325.818,6.00,6,0.100,51583.000,0.200,7212.000,0.300,2662.000,0.500,2409.000,1.000,592.000,5.000,0
"03/10/08","01:11:41",53798.000,"cc",28270.455,6.00,6,0.100,41942.000,0.200,6313.000,0.300,2521.000,0.500,2387.000,1.000,635.000,5.000,0
"03/10/08","01:11:47",65626.000,"cc",28243.182,6.00,6,0.100,52791.000,0.200,7464.000,0.300,2526.000,0.500,2263.000,1.000,582.000,5.000,0
"03/10/08","01:11:53",112394.000,"cc",28256.635,6.00,6,0.100,94556.000,0.200,12466.000,0.300,2671.000,0.500,2164.000,1.000,537.000,5.000,0
"03/10/08","01:11:59",84044.000,"cc",28371.109,6.00,6,0.100,68609.000,0.200,9648.000,0.300,2771.000,0.500,2419.000,1.000,597.000,5.000,0
"03/10/08","01:12:05",62607.000,"cc",28400.586,6.00,6,0.100,49204.000,0.200,7563.000,0.300,2763.000,0.500,2412.000,1.000,665.000,5.000,0
"03/10/08","01:12:11",120363.000,"cc",28243.387,6.00,6,0.100,100810.000,0.200,13833.000,0.300,2805.000,0.500,2310.000,1.000,605.000,5.000,0
"03/10/08","01:12:17",65157.000,"cc",28323.248,6.00,6,0.100,52485.000,0.200,7314.000,0.300,2551.000,0.500,2253.000,1.000,554.000,5.000,0
"03/10/08","01:12:23",54972.000,"cc",28354.525,6.00,6,0.100,42966.000,0.200,6456.000,0.300,2473.000,0.500,2431.000,1.000,646.000,5.000,0
"03/10/08","01:12:29",37389.000,"cc",28319.520,6.00,6,0.100,26810.000,0.200,4741.000,0.300,2650.000,0.500,2536.000,1.000,652.000,5.000,0
"03/10/08","01:12:35",36043.000,"cc",28280.225,6.00,6,0.100,25793.000,0.200,4558.000,0.300,2589.000,0.500,2454.000,1.000,649.000,5.000,0
"03/10/08","01:12:41",28897.000,"cc",28365.982,6.00,6,0.100,19046.000,0.200,4035.000,0.300,2693.000,0.500,2443.000,1.000,680.000,5.000,0
"03/10/08","01:12:47",27205.000,"cc",28202.303,6.00,6,0.100,17892.000,0.200,3837.000,0.300,2427.000,0.500,2433.000,1.000,616.000,5.000,0
"03/10/08","01:12:53",48338.000,"cc",28309.385,6.00,6,0.100,37437.000,0.200,5815.000,0.300,2390.000,0.500,2178.000,1.000,518.000,5.000,0
"03/10/08","01:12:59",32962.000,"cc",28320.691,6.00,6,0.100,23372.000,0.200,4226.000,0.300,2444.000,0.500,2324.000,1.000,596.000,5.000,0
"03/10/08","01:13:05",27820.000,"cc",28379.272,6.00,6,0.100,18965.000,0.200,3622.000,0.300,2384.000,0.500,2297.000,1.000,552.000,5.000,0
"03/10/08","01:13:11",74327.000,"cc",28371.012,6.00,6,0.100,60375.000,0.200,8673.000,0.300,2598.000,0.500,2106.000,1.000,575.000,5.000,0
"03/10/08","01:13:17",46381.000,"cc",28328.125,6.00,6,0.100,35704.000,0.200,5510.000,0.300,2452.000,0.500,2135.000,1.000,580.000,5.000,0
"03/10/08","01:13:23",42122.000,"cc",28299.551,6.00,6,0.100,31831.000,0.200,5090.000,0.300,2395.000,0.500,2211.000,1.000,595.000,5.000,0
"03/10/08","01:13:29",32380.000,"cc",28275.945,6.00,6,0.100,22433.000,0.200,4249.000,0.300,2671.000,0.500,2418.000,1.000,609.000,5.000,0
"03/10/08","01:13:35",51485.000,"cc",28403.193,6.00,6,0.100,40134.000,0.200,6162.000,0.300,2417.000,0.500,2207.000,1.000,565.000,5.000,0
"03/10/08","01:13:41",45359.000,"cc",28273.111,6.00,6,0.100,34620.000,0.200,5505.000,0.300,2490.000,0.500,2200.000,1.000,544.000,5.000,0
"03/10/08","01:13:47",80361.000,"cc",28262.279,6.00,6,0.100,66515.000,0.200,8790.000,0.300,2450.000,0.500,2108.000,1.000,498.000,5.000,0
"03/10/08","01:13:53",80397.000,"cc",28243.092,6.00,6,0.100,66512.000,0.200,8939.000,0.300,2403.000,0.500,2017.000,1.000,526.000,5.000,0
"03/10/08","01:13:59",40238.000,"cc",28339.686,6.00,6,0.100,30108.000,0.200,4935.000,0.300,2423.000,0.500,2199.000,1.000,573.000,5.000,0
"03/10/08","01:14:05",57377.000,"cc",28364.565,6.00,6,0.100,45243.000,0.200,6784.000,0.300,2479.000,0.500,2264.000,1.000,607.000,5.000,0
"03/10/08","01:14:11",62477.000,"cc",28340.732,6.00,6,0.100,50009.000,0.200,7018.000,0.300,2587.000,0.500,2274.000,1.000,589.000,5.000,0
"03/10/08","01:14:17",92692.000,"cc",28327.201,6.00,6,0.100,77116.000,0.200,10085.000,0.300,2641.000,0.500,2253.000,1.000,597.000,5.000,0
"03/10/08","01:14:23",70423.000,"cc",28352.402,6.00,6,0.100,57314.000,0.200,7792.000,0.300,2586.000,0.500,2177.000,1.000,554.000,5.000,0
"03/10/08","01:14:29",59380.000,"cc",28274.932,6.00,6,0.100,47462.000,0.200,6630.000,0.300,2496.000,0.500,2224.000,1.000,568.000,5.000,0
"03/10/08","01:14:35",76248.000,"cc",28293.416,6.00,6,0.100,62571.000,0.200,8592.000,0.300,2407.000,0.500,2129.000,1.000,549.000,5.000,0
"03/10/08","01:14:41",51165.000,"cc",28303.854,6.00,6,0.100,39930.000,0.200,6004.000,0.300,2408.000,0.500,2261.000,1.000,562.000,5.000,0
"03/10/08","01:14:47",51102.000,"cc",28348.650,6.00,6,0.100,39809.000,0.200,5985.000,0.300,2526.000,0.500,2191.000,1.000,591.000,5.000,0
"03/10/08","01:14:53",82506.000,"cc",28348.648,6.00,6,0.100,67757.000,0.200,9332.000,0.300,2637.000,0.500,2178.000,1.000,602.000,5.000,0
"03/10/08","01:14:59",74227.000,"cc",28295.897,6.00,6,0.100,60487.000,0.200,8206.000,0.300,2642.000,0.500,2296.000,1.000,596.000,5.000,0
"03/10/08","01:15:05",56270.000,"cc",28307.402,6.00,6,0.100,44141.000,0.200,6571.000,0.300,2576.000,0.500,2361.000,1.000,621.000,5.000,0
"03/10/08","01:15:11",35558.000,"cc",28349.432,6.00,6,0.100,25186.000,0.200,4584.000,0.300,2638.000,0.500,2514.000,1.000,636.000,5.000,0
"03/10/08","01:15:17",41474.000,"cc",28272.926,6.00,6,0.100,30963.000,0.200,5126.000,0.300,2497.000,0.500,2313.000,1.000,575.000,5.000,0
"03/10/08","01:15:23",36421.000,"cc",28354.725,6.00,6,0.100,25991.000,0.200,4660.000,0.300,2618.000,0.500,2534.000,1.000,618.000,5.000,0
"03/10/08","01:15:29",27732.000,"cc",28349.041,6.00,6,0.100,17814.000,0.200,3992.000,0.300,2661.000,0.500,2558.000,1.000,707.000,5.000,0
"03/10/08","01:15:35",43962.000,"cc",28341.205,6.00,6,0.100,32379.000,0.200,5466.000,0.300,2771.000,0.500,2629.000,1.000,717.000,5.000,0
"03/10/08","01:15:41",41646.000,"cc",28444.545,6.00,6,0.100,30410.000,0.200,5235.000,0.300,2729.000,0.500,2586.000,1.000,686.000,5.000,0
"03/10/08","01:15:47",34873.000,"cc",28208.227,6.00,6,0.100,24504.000,0.200,4473.000,0.300,2635.000,0.500,2579.000,1.000,682.000,5.000,0
"03/10/08","01:15:53",48340.000,"cc",28272.807,6.00,6,0.100,36702.000,0.200,5801.000,0.300,2706.000,0.500,2487.000,1.000,644.000,5.000,0
"03/10/08","01:15:59",94096.000,"cc",28324.473,6.00,6,0.100,77141.000,0.200,10873.000,0.300,2929.000,0.500,2520.000,1.000,633.000,5.000,0
"03/10/08","01:16:05",92122.000,"cc",28345.463,6.00,6,0.100,76266.000,0.200,10166.000,0.300,2657.000,0.500,2424.000,1.000,609.000,5.000,0
"03/10/08","01:16:11",70252.000,"cc",28269.740,6.00,6,0.100,56787.000,0.200,7811.000,0.300,2633.000,0.500,2429.000,1.000,592.000,5.000,0
"03/10/08","01:16:17",44398.000,"cc",28317.582,6.00,6,0.100,33846.000,0.200,5197.000,0.300,2415.000,0.500,2329.000,1.000,611.000,5.000,0
"03/10/08","01:16:23",32410.000,"cc",28278.113,6.00,6,0.100,22782.000,0.200,4166.000,0.300,2517.000,0.500,2342.000,1.000,603.000,5.000,0